Hourly Weather Klekotiv

Today, 30 July, Friday

Time Temperature Precipitation Wind Pressure Humidity
00:00 +19°C° 0 mm 2 mps 740 mmHg 79%
01:00 +19°C° 0 mm 2 mps 740 mmHg 80%
02:00 +19°C° 0 mm 2 mps 740 mmHg 80%
03:00 +19°C° 0 mm 2 mps 740 mmHg 79%
04:00 +19°C° 0 mm 2 mps 740 mmHg 78%
05:00 +19°C° 0 mm 2 mps 740 mmHg 76%
06:00 +20°C° 0 mm 2 mps 740 mmHg 74%
07:00 +21°C° 0 mm 2 mps 740 mmHg 72%
08:00 +23°C° 0 mm 2 mps 741 mmHg 69%
09:00 +25°C° 0 mm 3 mps 740 mmHg 62%
10:00 +26°C° 0 mm 3 mps 740 mmHg 55%
11:00 +28°C° 0 mm 3 mps 740 mmHg 48%
12:00 +28°C° 0 mm 3 mps 740 mmHg 46%
13:00 +29°C° 0 mm 3 mps 740 mmHg 44%
14:00 +30°C° 0 mm 4 mps 740 mmHg 42%
15:00 +29°C° 0 mm 3 mps 739 mmHg 44%
16:00 +29°C° 0 mm 3 mps 739 mmHg 45%
17:00 +29°C° 0 mm 3 mps 739 mmHg 47%
18:00 +28°C° 0 mm 3 mps 739 mmHg 53%
19:00 +26°C° 0 mm 3 mps 739 mmHg 59%
20:00 +24°C° 0 mm 3 mps 739 mmHg 65%
21:00 +23°C° 0 mm 2 mps 739 mmHg 67%
22:00 +21°C° 0 mm 2 mps 739 mmHg 69%
23:00 +21°C° 0 mm 2 mps 739 mmHg 70%

Tomorrow, 31 July, Saturday

Time Temperature Precipitation Wind Pressure Humidity
00:00 +21°C° 0 mm 2 mps 739 mmHg 70%
01:00 +21°C° 0 mm 2 mps 739 mmHg 69%
02:00 +21°C° 0 mm 2 mps 739 mmHg 68%
03:00 +20°C° 0 mm 2 mps 739 mmHg 71%
04:00 +20°C° 0 mm 2 mps 739 mmHg 73%
05:00 +19°C° 0 mm 3 mps 738 mmHg 75%
06:00 +21°C° 0 mm 3 mps 739 mmHg 72%
07:00 +24°C° 0 mm 3 mps 739 mmHg 69%
08:00 +26°C° 0 mm 3 mps 739 mmHg 66%
09:00 +27°C° 0 mm 4 mps 739 mmHg 60%
10:00 +29°C° 0 mm 4 mps 739 mmHg 54%
11:00 +32°C° 0 mm 4 mps 739 mmHg 48%
12:00 +33°C° 0 mm 4 mps 738 mmHg 46%
13:00 +33°C° 0 mm 4 mps 738 mmHg 43%
14:00 +34°C° 0 mm 4 mps 738 mmHg 40%
15:00 +33°C° 0 mm 4 mps 738 mmHg 43%
16:00 +33°C° 0 mm 5 mps 737 mmHg 46%
17:00 +33°C° 0 mm 5 mps 737 mmHg 49%
18:00 +30°C° 0 mm 4 mps 737 mmHg 56%
19:00 +28°C° 0 mm 4 mps 736 mmHg 62%
20:00 +26°C° 0 mm 4 mps 736 mmHg 69%
21:00 +23°C° 0.4 mm 4 mps 737 mmHg 77%
22:00 +22°C° 0.4 mm 4 mps 737 mmHg 86%
23:00 +20°C° 0.4 mm 4 mps 738 mmHg 94%

Day after tomorrow, 1 August, Sunday

Time Temperature Precipitation Wind Pressure Humidity
00:00 +20°C° 0.1 mm 4 mps 738 mmHg 95%
01:00 +19°C° 0.1 mm 4 mps 738 mmHg 95%
02:00 +19°C° 0.1 mm 3 mps 738 mmHg 96%
03:00 +18°C° 0 mm 3 mps 739 mmHg 96%
04:00 +18°C° 0 mm 2 mps 739 mmHg 97%
05:00 +17°C° 0 mm 2 mps 739 mmHg 97%
06:00 +18°C° 0 mm 2 mps 739 mmHg 92%
07:00 +20°C° 0 mm 2 mps 739 mmHg 87%
08:00 +22°C° 0 mm 1 mps 739 mmHg 82%
09:00 +24°C° 0 mm 1 mps 739 mmHg 73%
10:00 +26°C° 0 mm 1 mps 739 mmHg 64%
11:00 +27°C° 0 mm 1 mps 739 mmHg 56%
12:00 +28°C° 0 mm 2 mps 739 mmHg 52%
13:00 +29°C° 0 mm 2 mps 739 mmHg 49%
14:00 +30°C° 0 mm 3 mps 738 mmHg 45%
15:00 +30°C° 0 mm 3 mps 738 mmHg 48%
16:00 +30°C° 0 mm 3 mps 737 mmHg 51%
17:00 +29°C° 0 mm 3 mps 737 mmHg 54%
18:00 +28°C° 0 mm 4 mps 737 mmHg 58%
19:00 +27°C° 0 mm 4 mps 737 mmHg 62%
20:00 +26°C° 0 mm 5 mps 736 mmHg 66%
21:00 +25°C° 0.5 mm 4 mps 736 mmHg 73%
22:00 +22°C° 0.5 mm 4 mps 736 mmHg 80%
23:00 +20°C° 0.5 mm 3 mps 736 mmHg 87%

2 August, Monday

Time Temperature Precipitation Wind Pressure Humidity
00:00 +19°C° 0.2 mm 3 mps 736 mmHg 88%
01:00 +19°C° 0.2 mm 2 mps 736 mmHg 90%
02:00 +20°C° 0.2 mm 1 mps 736 mmHg 91%
03:00 +19°C° 0.1 mm 1 mps 736 mmHg 92%
04:00 +18°C° 0.1 mm 2 mps 736 mmHg 92%
05:00 +17°C° 0.1 mm 2 mps 736 mmHg 93%
06:00 +18°C° 0 mm 2 mps 736 mmHg 92%
07:00 +19°C° 0 mm 3 mps 736 mmHg 90%
08:00 +20°C° 0 mm 4 mps 737 mmHg 89%
09:00 +20°C° 0 mm 5 mps 737 mmHg 87%
10:00 +20°C° 0 mm 5 mps 737 mmHg 85%
11:00 +20°C° 0 mm 6 mps 738 mmHg 84%
12:00 +20°C° 0 mm 6 mps 738 mmHg 79%
13:00 +21°C° 0 mm 6 mps 739 mmHg 74%
14:00 +21°C° 0 mm 5 mps 739 mmHg 69%
15:00 +21°C° 0 mm 5 mps 739 mmHg 65%
16:00 +22°C° 0 mm 5 mps 739 mmHg 62%
17:00 +22°C° 0 mm 5 mps 739 mmHg 59%
18:00 +21°C° 0 mm 4 mps 739 mmHg 65%
19:00 +19°C° 0 mm 3 mps 739 mmHg 71%
20:00 +18°C° 0 mm 2 mps 740 mmHg 78%
21:00 +18°C° 0 mm 2 mps 740 mmHg 81%
22:00 +18°C° 0 mm 1 mps 740 mmHg 84%
23:00 +16°C° 0 mm 1 mps 741 mmHg 87%

3 August, Tuesday

Time Temperature Precipitation Wind Pressure Humidity
00:00 +16°C° 0 mm 2 mps 741 mmHg 88%
01:00 +16°C° 0 mm 2 mps 741 mmHg 90%
02:00 +15°C° 0 mm 2 mps 741 mmHg 91%
03:00 +15°C° 0 mm 2 mps 741 mmHg 91%
04:00 +15°C° 0 mm 2 mps 742 mmHg 92%
05:00 +14°C° 0 mm 2 mps 742 mmHg 92%
06:00 +16°C° 0 mm 2 mps 742 mmHg 85%
07:00 +18°C° 0 mm 3 mps 743 mmHg 78%
08:00 +19°C° 0 mm 3 mps 743 mmHg 71%
09:00 +21°C° 0 mm 3 mps 743 mmHg 65%
10:00 +22°C° 0 mm 3 mps 743 mmHg 59%
11:00 +24°C° 0 mm 3 mps 744 mmHg 54%
12:00 +25°C° 0.1 mm 3 mps 744 mmHg 53%
13:00 +25°C° 0.1 mm 3 mps 744 mmHg 52%
14:00 +25°C° 0.1 mm 3 mps 744 mmHg 51%
15:00 +25°C° 0 mm 3 mps 743 mmHg 53%
16:00 +24°C° 0 mm 2 mps 743 mmHg 55%
17:00 +24°C° 0 mm 2 mps 743 mmHg 57%
18:00 +23°C° 0 mm 2 mps 743 mmHg 60%
19:00 +21°C° 0 mm 1 mps 743 mmHg 64%
20:00 +20°C° 0 mm 1 mps 743 mmHg 68%
21:00 +19°C° 0 mm 1 mps 744 mmHg 70%
22:00 +19°C° 0 mm 1 mps 744 mmHg 71%
23:00 +18°C° 0 mm 1 mps 744 mmHg 73%

4 August, Wednesday

Time Temperature Precipitation Wind Pressure Humidity
00:00 +17°C° 0 mm 2 mps 744 mmHg 75%
01:00 +17°C° 0 mm 2 mps 743 mmHg 76%
02:00 +16°C° 0 mm 2 mps 743 mmHg 78%
03:00 +16°C° 0 mm 3 mps 743 mmHg 78%
04:00 +16°C° 0 mm 3 mps 743 mmHg 79%
05:00 +16°C° 0 mm 3 mps 743 mmHg 80%
06:00 +17°C° 0.1 mm 3 mps 743 mmHg 77%
07:00 +18°C° 0.1 mm 3 mps 743 mmHg 75%
08:00 +20°C° 0.1 mm 4 mps 743 mmHg 73%
09:00 +21°C° 0.1 mm 5 mps 743 mmHg 68%
10:00 +22°C° 0.1 mm 5 mps 743 mmHg 63%
11:00 +24°C° 0.1 mm 6 mps 742 mmHg 59%
12:00 +26°C° 0 mm 6 mps 742 mmHg 56%
13:00 +27°C° 0 mm 6 mps 742 mmHg 54%
14:00 +28°C° 0 mm 6 mps 741 mmHg 51%
15:00 +27°C° 0.1 mm 5 mps 741 mmHg 55%
16:00 +26°C° 0.1 mm 4 mps 740 mmHg 58%
17:00 +26°C° 0.1 mm 3 mps 740 mmHg 62%
18:00 +24°C° 0.9 mm 3 mps 740 mmHg 70%
19:00 +21°C° 0.9 mm 2 mps 740 mmHg 78%
20:00 +21°C° 0.9 mm 1 mps 740 mmHg 86%
21:00 +20°C° 0.4 mm 1 mps 740 mmHg 88%
22:00 +19°C° 0.4 mm 1 mps 740 mmHg 89%
23:00 +19°C° 0.4 mm 1 mps 740 mmHg 90%
Show more